User: anonymous   Login
Location: Biltmore Gardens
(41.6070°N, 83.4666°W)
Time: 22:28:38
(UTC+00:00)
Language:

Gbstr 26 Del rocket - Orbit

View from above orbital plane
View from above orbital plane
View from above satellite
View from above satellite

Ground track
Ground track

The orbit data is extracted from the following two-line orbital elements,

1 25876U 99041E   20273.11811962  .00000092  00000-0  54977-4 0  9991
2 25876  51.7669 261.1049 0530760 286.4587  67.8666 14.04462254 83213
Epoch (UTC): 29 September 2020 02:50:05
Eccentricity: 0.0530760
inclination: 51.7669°
perigee height: 493 km
apogee height: 1263 km
right ascension of ascending node: 261.1049°
argument of perigee: 286.4587°
revolutions per day: 14.04462254
mean anomaly at epoch: 67.8666°
orbit number at epoch: 8321

The dashed part of the orbit path shows where the satellite is in the earth's shadow,  

DLR